Location: Unspecified
(43.4354°N, 0.0000°E)
Time: 09:17:53
(UTC+00:00)

Courier 1B - Pass Details

Date: 26 June 2019
Orbit: 963 x 1209 km, 28.3° (Epoch: 19 July)

Event Time Altitude Azimuth Distance (km) Brightness Sun altitude
Rises 18:39:06 0° 243° (WSW) 3,776 11.2 9.7°
Reaches altitude 10° 18:42:18 10° 230° (SW) 2,865 10.4 9.1°
Maximum altitude 18:47:39 24° 180° (S) 2,105 9.1 8.2°
Drops below altitude 10° 18:53:15 10° 130° (SE) 3,008 9.5 7.3°
Sets 18:56:42 0° 118° (ESE) 4,008 10.0 6.7°
